N996A KMRH-KFFA

Flight info

Callsign N996A
Flight time 0h 41m
Altitude 11000
Route VPOKY VPGHI VPUMO
Aircraft BE60/L-SDFGRY/C

Departure

Time 2026-05-07 23:15
Airport Michael J. Smith Field (KMRH)

Arrival

Time 2026-05-07 23:57
Airport First Flight Airport (KFFA)
Time Latitude Longitude Altitude Speed Heading
2026-05-07 23:02 34.73334 -76.65489 12 ft 0 kts 88°
2026-05-07 23:11 34.73347 -76.65478 12 ft 10 kts 308°
2026-05-07 23:11 34.73437 -76.65526 12 ft 21 kts
2026-05-07 23:12 34.73621 -76.65530 13 ft 27 kts 357°
2026-05-07 23:12 34.73711 -76.65432 13 ft 20 kts 64°
2026-05-07 23:12 34.73767 -76.65337 14 ft 7 kts 342°
2026-05-07 23:12 34.73769 -76.65338 14 ft 0 kts 331°
2026-05-07 23:14 34.73774 -76.65341 14 ft 3 kts 332°
2026-05-07 23:14 34.73812 -76.65360 15 ft 7 kts 337°
2026-05-07 23:14 34.73803 -76.65438 14 ft 29 kts 245°
2026-05-07 23:15 34.73637 -76.65953 19 ft 92 kts 247°
2026-05-07 23:15 34.73401 -76.66705 443 ft 89 kts 248°
2026-05-07 23:15 34.73142 -76.67368 971 ft 90 kts 245°
2026-05-07 23:15 34.72791 -76.68123 1231 ft 109 kts 243°
2026-05-07 23:16 34.72258 -76.68857 1600 ft 126 kts 219°
2026-05-07 23:16 34.71343 -76.69082 2020 ft 141 kts 182°
2026-05-07 23:16 34.70370 -76.68852 2474 ft 146 kts 173°
2026-05-07 23:16 34.69472 -76.68150 2888 ft 165 kts 136°
2026-05-07 23:17 34.69087 -76.66808 3223 ft 177 kts 84°
2026-05-07 23:17 34.69424 -76.65407 3657 ft 170 kts 60°
2026-05-07 23:17 34.69925 -76.64107 4070 ft 173 kts 59°
2026-05-07 23:17 34.70575 -76.62795 4260 ft 185 kts 47°
2026-05-07 23:18 34.71393 -76.61583 4588 ft 188 kts 41°
2026-05-07 23:18 34.72344 -76.60338 4505 ft 212 kts 38°
2026-05-07 23:18 34.73371 -76.59137 4999 ft 197 kts 36°
2026-05-07 23:18 34.74393 -76.57962 5113 ft 211 kts 36°
2026-05-07 23:19 34.75466 -76.56793 5418 ft 207 kts 35°
2026-05-07 23:19 34.76604 -76.55665 5594 ft 207 kts 33°
2026-05-07 23:19 34.77699 -76.54569 5958 ft 205 kts 32°
2026-05-07 23:19 34.78893 -76.53452 5975 ft 215 kts 29°
2026-05-07 23:20 34.80087 -76.52441 6334 ft 210 kts 26°
2026-05-07 23:20 34.81340 -76.51511 6636 ft 202 kts 22°
2026-05-07 23:20 34.82538 -76.50714 7024 ft 201 kts 19°
2026-05-07 23:20 34.83803 -76.49865 7288 ft 202 kts 20°
2026-05-07 23:21 34.85026 -76.48988 7521 ft 213 kts 22°
2026-05-07 23:21 34.86344 -76.48050 7658 ft 220 kts 25°
2026-05-07 23:21 34.87466 -76.46818 8225 ft 202 kts 44°
2026-05-07 23:21 34.88260 -76.45413 8629 ft 210 kts 60°
2026-05-07 23:22 34.88842 -76.43691 8512 ft 239 kts 67°
2026-05-07 23:22 34.89414 -76.42004 9083 ft 210 kts 66°
2026-05-07 23:22 34.89769 -76.40148 9180 ft 227 kts 83°
2026-05-07 23:22 34.89993 -76.38210 9454 ft 229 kts 74°
2026-05-07 23:23 34.90429 -76.36333 9746 ft 233 kts 70°
2026-05-07 23:23 34.91023 -76.34583 10213 ft 224 kts 66°
2026-05-07 23:23 34.91580 -76.32753 10401 ft 233 kts 69°
2026-05-07 23:23 34.92111 -76.30890 10702 ft 232 kts 69°
2026-05-07 23:24 34.92696 -76.29016 10718 ft 241 kts 66°
2026-05-07 23:24 34.93376 -76.27154 10908 ft 237 kts 62°
2026-05-07 23:24 34.94158 -76.25425 11024 ft 239 kts 54°
2026-05-07 23:24 34.95048 -76.23679 11029 ft 245 kts 53°
2026-05-07 23:25 34.95966 -76.21901 11038 ft 250 kts 53°
2026-05-07 23:25 34.96904 -76.20095 11042 ft 254 kts 53°
2026-05-07 23:25 34.97841 -76.18270 11042 ft 254 kts 53°
2026-05-07 23:25 34.98775 -76.16449 11043 ft 253 kts 53°
2026-05-07 23:26 34.99707 -76.14629 11045 ft 253 kts 53°
2026-05-07 23:26 35.00640 -76.12809 11034 ft 253 kts 53°
2026-05-07 23:26 35.01573 -76.10993 11031 ft 253 kts 53°
2026-05-07 23:26 35.02509 -76.09174 11032 ft 253 kts 53°
2026-05-07 23:27 35.04380 -76.05534 11029 ft 253 kts 53°
2026-05-07 23:27 35.05316 -76.03712 11035 ft 253 kts 53°
2026-05-07 23:27 35.06252 -76.01889 11035 ft 253 kts 53°
2026-05-07 23:28 35.07179 -76.00087 11036 ft 253 kts 53°
2026-05-07 23:28 35.08126 -75.98243 11037 ft 253 kts 53°
2026-05-07 23:28 35.09064 -75.96423 11038 ft 253 kts 53°
2026-05-07 23:28 35.10001 -75.94603 11036 ft 253 kts 53°
2026-05-07 23:29 35.10941 -75.92780 11029 ft 253 kts 53°
2026-05-07 23:29 35.11881 -75.90962 11028 ft 253 kts 53°
2026-05-07 23:29 35.12820 -75.89145 11035 ft 253 kts 53°
2026-05-07 23:29 35.13872 -75.87447 11030 ft 249 kts 42°
2026-05-07 23:30 35.14958 -75.85790 11030 ft 253 kts 53°
2026-05-07 23:30 35.15694 -75.83828 11012 ft 256 kts 70°
2026-05-07 23:30 35.16231 -75.81755 11013 ft 256 kts 71°
2026-05-07 23:30 35.16821 -75.79705 11013 ft 255 kts 67°
2026-05-07 23:31 35.17478 -75.77688 11004 ft 256 kts 66°
2026-05-07 23:31 35.18120 -75.75693 11004 ft 256 kts 67°
2026-05-07 23:31 35.18755 -75.73655 11003 ft 256 kts 68°
2026-05-07 23:31 35.19391 -75.71618 11003 ft 257 kts 67°
2026-05-07 23:32 35.20030 -75.69579 10955 ft 255 kts 67°
2026-05-07 23:32 35.20652 -75.67594 10834 ft 244 kts 67°
2026-05-07 23:32 35.21250 -75.65690 10654 ft 236 kts 67°
2026-05-07 23:32 35.21828 -75.63844 10471 ft 230 kts 67°
2026-05-07 23:33 35.22395 -75.62030 10293 ft 226 kts 67°
2026-05-07 23:33 35.22954 -75.60245 10088 ft 224 kts 67°
2026-05-07 23:33 35.23508 -75.58470 9875 ft 223 kts 67°
2026-05-07 23:33 35.24061 -75.56700 9658 ft 222 kts 68°
2026-05-07 23:34 35.24608 -75.54944 9426 ft 220 kts 65°
2026-05-07 23:34 35.25406 -75.53395 9188 ft 212 kts 39°
2026-05-07 23:34 35.26521 -75.52312 8960 ft 199 kts 17°
2026-05-07 23:34 35.27768 -75.51737 8732 ft 185 kts 358°
2026-05-07 23:35 35.29014 -75.51540 8511 ft 179 kts 352°
2026-05-07 23:35 35.30255 -75.51348 8289 ft 180 kts 353°
2026-05-07 23:35 35.31476 -75.51155 8071 ft 179 kts 353°
2026-05-07 23:35 35.32716 -75.50962 7851 ft 178 kts 354°
2026-05-07 23:36 35.33943 -75.50772 7630 ft 178 kts 354°
2026-05-07 23:36 35.35168 -75.50581 7414 ft 177 kts 354°
2026-05-07 23:36 35.36384 -75.50392 7213 ft 176 kts 354°
2026-05-07 23:36 35.37593 -75.50205 7017 ft 175 kts 356°
2026-05-07 23:37 35.38796 -75.50017 6805 ft 174 kts 356°
2026-05-07 23:37 35.39997 -75.49830 6592 ft 174 kts 356°
2026-05-07 23:37 35.41197 -75.49644 6377 ft 173 kts 356°
2026-05-07 23:37 35.42390 -75.49458 6161 ft 173 kts 356°
2026-05-07 23:38 35.43577 -75.49272 5936 ft 171 kts 356°
2026-05-07 23:38 35.44758 -75.49088 5713 ft 171 kts 356°
2026-05-07 23:38 35.45935 -75.48905 5490 ft 170 kts 356°
2026-05-07 23:38 35.47107 -75.48722 5271 ft 170 kts 356°
2026-05-07 23:39 35.48280 -75.48540 5052 ft 169 kts 356°
2026-05-07 23:39 35.49447 -75.48358 4838 ft 169 kts 356°
2026-05-07 23:39 35.50601 -75.48177 4618 ft 169 kts 356°
2026-05-07 23:39 35.51762 -75.47997 4392 ft 168 kts 356°
2026-05-07 23:40 35.52922 -75.47809 4212 ft 167 kts 355°
2026-05-07 23:40 35.54034 -75.47620 4231 ft 157 kts 353°
2026-05-07 23:40 35.55090 -75.47492 4224 ft 149 kts 356°
2026-05-07 23:40 35.56089 -75.47316 4220 ft 141 kts 355°
2026-05-07 23:41 35.57043 -75.47158 4223 ft 137 kts 358°
2026-05-07 23:41 35.57924 -75.46598 4222 ft 147 kts 26°
2026-05-07 23:41 35.58739 -75.45859 4228 ft 144 kts 25°
2026-05-07 23:41 35.59554 -75.45143 4232 ft 150 kts 25°
2026-05-07 23:42 35.60419 -75.44382 4247 ft 156 kts 26°
2026-05-07 23:42 35.61314 -75.43590 4254 ft 161 kts 26°
2026-05-07 23:42 35.62229 -75.42779 4247 ft 163 kts 27°
2026-05-07 23:42 35.63147 -75.41962 4247 ft 163 kts 25°
2026-05-07 23:43 35.64160 -75.41409 4118 ft 158 kts 359°
2026-05-07 23:43 35.65225 -75.41457 3966 ft 150 kts 334°
2026-05-07 23:43 35.66134 -75.42001 3820 ft 144 kts 317°
2026-05-07 23:43 35.66992 -75.42671 3665 ft 148 kts 318°
2026-05-07 23:44 35.67869 -75.43344 3505 ft 149 kts 320°
2026-05-07 23:44 35.68758 -75.44014 3342 ft 150 kts 319°
2026-05-07 23:44 35.69647 -75.44694 3179 ft 151 kts 319°
2026-05-07 23:44 35.70539 -75.45379 3008 ft 151 kts 320°
2026-05-07 23:45 35.71430 -75.46057 2838 ft 150 kts 321°
2026-05-07 23:45 35.72019 -75.46510 2724 ft 151 kts 321°
2026-05-07 23:45 35.73173 -75.47403 2490 ft 143 kts 321°
2026-05-07 23:45 35.74006 -75.48040 2311 ft 138 kts 320°
2026-05-07 23:46 35.74796 -75.48648 2230 ft 129 kts 323°
2026-05-07 23:46 35.75298 -75.49029 2232 ft 122 kts 322°
2026-05-07 23:46 35.75988 -75.49572 2230 ft 114 kts 325°
2026-05-07 23:46 35.76645 -75.50073 2229 ft 109 kts 325°
2026-05-07 23:47 35.77267 -75.50548 2234 ft 103 kts 323°
2026-05-07 23:47 35.77873 -75.51023 2241 ft 105 kts 321°
2026-05-07 23:47 35.78505 -75.51507 2256 ft 108 kts 321°
2026-05-07 23:47 35.79158 -75.52010 2259 ft 112 kts 322°
2026-05-07 23:48 35.79826 -75.52525 2251 ft 115 kts 324°
2026-05-07 23:48 35.80449 -75.53158 2257 ft 118 kts 317°
2026-05-07 23:48 35.81072 -75.53788 2264 ft 116 kts 316°
2026-05-07 23:48 35.81686 -75.54428 2259 ft 116 kts 317°
2026-05-07 23:49 35.82298 -75.55063 2252 ft 115 kts 317°
2026-05-07 23:49 35.82915 -75.55692 2252 ft 114 kts 316°
2026-05-07 23:49 35.83540 -75.56318 2245 ft 117 kts 317°
2026-05-07 23:49 35.84158 -75.56962 2242 ft 116 kts 317°
2026-05-07 23:50 35.84784 -75.57605 2242 ft 118 kts 317°
2026-05-07 23:50 35.85411 -75.58244 2253 ft 114 kts 316°
2026-05-07 23:50 35.86019 -75.58863 2275 ft 113 kts 317°
2026-05-07 23:50 35.86608 -75.59481 2278 ft 109 kts 315°
2026-05-07 23:51 35.87190 -75.60081 2275 ft 110 kts 316°
2026-05-07 23:51 35.87784 -75.60702 2268 ft 114 kts 327°
2026-05-07 23:51 35.88398 -75.61327 2265 ft 116 kts 326°
2026-05-07 23:51 35.89025 -75.61971 2266 ft 118 kts 326°
2026-05-07 23:52 35.89656 -75.62609 2271 ft 116 kts 327°
2026-05-07 23:52 35.90267 -75.63249 2276 ft 116 kts 328°
2026-05-07 23:52 35.90884 -75.63878 2283 ft 114 kts 329°
2026-05-07 23:52 35.91496 -75.64511 2244 ft 118 kts 328°
2026-05-07 23:53 35.92157 -75.65178 2122 ft 127 kts 326°
2026-05-07 23:53 35.92842 -75.65831 1998 ft 124 kts 341°
2026-05-07 23:53 35.93679 -75.66049 1821 ft 123 kts 355°
2026-05-07 23:53 35.94498 -75.66223 1783 ft 115 kts 355°
2026-05-07 23:54 35.95256 -75.66385 1713 ft 109 kts 355°
2026-05-07 23:54 35.95935 -75.66574 1558 ft 94 kts 352°
2026-05-07 23:54 35.96565 -75.66775 1503 ft 91 kts 356°
2026-05-07 23:54 35.97195 -75.66875 1430 ft 92 kts 359°
2026-05-07 23:55 35.97826 -75.66976 1346 ft 94 kts 356°
2026-05-07 23:55 35.98456 -75.67169 1281 ft 88 kts 353°
2026-05-07 23:55 35.98984 -75.67359 937 ft 71 kts 355°
2026-05-07 23:55 35.99516 -75.67478 671 ft 83 kts 356°
2026-05-07 23:56 36.00088 -75.67534 426 ft 80 kts
2026-05-07 23:56 36.00642 -75.67465 237 ft 83 kts
2026-05-07 23:56 36.01224 -75.67327 66 ft 86 kts 11°
2026-05-07 23:56 36.01724 -75.67178 18 ft 55 kts 14°
2026-05-07 23:57 36.02007 -75.67084 16 ft 34 kts 16°
2026-05-07 23:57 36.02142 -75.67036 15 ft 8 kts 24°
2026-05-07 23:57 36.02129 -75.66992 14 ft 6 kts 161°
2026-05-07 23:57 36.02095 -75.67003 15 ft 6 kts 219°
2026-05-07 23:58 36.02061 -75.67062 16 ft 12 kts 195°
2026-05-07 23:58 36.01961 -75.67095 16 ft 19 kts 193°
2026-05-07 23:58 36.01817 -75.67141 18 ft 26 kts 197°
2026-05-07 23:58 36.01591 -75.67219 14 ft 37 kts 194°
2026-05-07 23:59 36.01467 -75.67210 17 ft 11 kts 104°
2026-05-07 23:59 36.01429 -75.67174 17 ft 9 kts 217°
2026-05-07 23:59 36.01413 -75.67179 17 ft 0 kts 190°
2026-05-07 23:59 36.01410 -75.67180 17 ft 0 kts 194°